Weather History for Mullan Pass, ID

Change the Weather History Date:

Sunday, August 18, 2013

  Actual Average (K3TH) Record (K3TH)
Temperature  
Mean Temperature 61 °F -  
Max Temperature 68 °F 83 °F 95 °F (1999)
Min Temperature 54 °F 53 °F 48 °F (1996)
Degree Days  
Heating Degree Days 4    
Growing Degree Days 11 (Base 50)    
Moisture  
Dew Point 44 °F    
Average Humidity 57    
Maximum Humidity 75    
Minimum Humidity 42    
Precipitation  
Precipitation 0.00 in - - ()
Sea Level Pressure  
Sea Level Pressure 29.94 in    
Wind  
Wind Speed 7 mph (WSW)    
Max Wind Speed 9 mph    
Max Gust Speed 20 mph    
Visibility 10 miles    
Events      
Averages and records for this station are not official NWS values.
T = Trace of Precipitation, MM = Missing Value Source: NWS Daily Summary

Daily Weather History Graph

Daily Weather History Graph

Search for Another Location

Airport:

Trip Planner

Search our weather history database for the weather conditions in past years. The results will help you decide how hot, cold, wet, or windy it might be!

Date:

Astronomy

Aug. 18, 2013 Rise Set
Actual Time 5:43 AM PDT 7:48 PM PDT
Civil Twilight 5:09 AM PDT 8:21 PM PDT
Nautical Twilight 4:28 AM PDT 9:02 PM PDT
Astronomical Twilight 3:42 AM PDT 9:48 PM PDT
Moon 6:01 PM PDT (8/18) 2:51 AM PDT (8/18)
Length of Visible Light 15h 11m
Length of Day
14h 05m
Waxing Gibbous, 93% of the Moon is Illuminated
Aug 18
Waxing Gibbous
Aug 20
Full
Aug 28
Last Quarter
Sep 5
New
Sep 12
First Quarter

Hourly Weather History & Observations

Time (PDT) Temp. Dew Point Humidity Pressure Visibility Wind Dir Wind Speed Gust Speed Precip Events Conditions
12:53 AM 55.9 °F 46.0 °F 69% 29.91 in 10.0 mi SW 6.9 mph - N/A   Clear
1:53 AM 55.0 °F 46.0 °F 72% 29.91 in 10.0 mi SW 6.9 mph - N/A   Clear
2:53 AM 55.0 °F 46.0 °F 72% 29.91 in 10.0 mi SW 8.1 mph - N/A   Clear
3:53 AM 55.0 °F 46.9 °F 74% 29.92 in 10.0 mi WSW 5.8 mph - N/A   Clear
4:53 AM 54.0 °F 46.0 °F 75% 29.93 in 10.0 mi SW 5.8 mph - N/A   Clear
5:53 AM 54.0 °F 46.0 °F 75% 29.94 in 10.0 mi SW 8.1 mph - N/A   Clear
6:53 AM 55.0 °F 46.0 °F 72% 29.94 in 10.0 mi WSW 5.8 mph - N/A   Clear
7:53 AM 55.9 °F 46.0 °F 69% 29.96 in 10.0 mi Variable 5.8 mph - N/A   Clear
8:53 AM 57.0 °F 46.0 °F 67% 29.97 in 10.0 mi Variable 6.9 mph - N/A   Clear
9:53 AM 60.1 °F 45.0 °F 57% 29.97 in 10.0 mi WSW 6.9 mph - N/A   Clear
10:53 AM 62.1 °F 43.0 °F 50% 29.97 in 10.0 mi Variable 5.8 mph - N/A   Clear
11:53 AM 64.0 °F 43.0 °F 46% 29.96 in 10.0 mi SW 6.9 mph - N/A   Clear
12:53 PM 64.0 °F 43.0 °F 46% 29.98 in 10.0 mi Variable 5.8 mph 18.4 mph N/A   Clear
1:53 PM 66.0 °F 45.0 °F 47% 29.97 in 10.0 mi SW 8.1 mph - N/A   Clear
2:53 PM 66.0 °F 43.0 °F 43% 29.96 in 10.0 mi WSW 9.2 mph 19.6 mph N/A   Clear
3:53 PM 68.0 °F 44.1 °F 42% 29.95 in 10.0 mi Variable 5.8 mph - N/A   Partly Cloudy
4:53 PM 66.0 °F 43.0 °F 43% 29.95 in 10.0 mi West 8.1 mph - N/A   Clear
5:53 PM 64.9 °F 42.1 °F 43% 29.94 in 10.0 mi Variable 6.9 mph - N/A   Clear
6:53 PM 63.0 °F 44.1 °F 50% 29.94 in 10.0 mi Variable 4.6 mph - N/A   Clear
7:53 PM 60.1 °F 43.0 °F 53% 29.94 in 10.0 mi WSW 5.8 mph - N/A   Clear
8:53 PM 60.1 °F 42.1 °F 51% 29.94 in 10.0 mi WSW 5.8 mph - N/A   Clear
9:53 PM 59.0 °F 41.0 °F 51% 29.93 in 10.0 mi WSW 6.9 mph - N/A   Clear
10:53 PM 57.9 °F 41.0 °F 53% 29.93 in 10.0 mi Variable 5.8 mph - N/A   Clear
11:53 PM 57.9 °F 39.9 °F 51% 29.92 in 10.0 mi WSW 8.1 mph 16.1 mph N/A   Clear